Location: Moscow
(38.8570°N, 84.2291°W)
Time: 20:11:47
(UTC+00:00)

O/OREOS (USA 219) - Pass Details

Date: 14 March 2026
Orbit: 577 x 597 km, 72.0° (Epoch: 21 April)

Event Time Altitude Azimuth Distance (km) Brightness Sun altitude
Rises 00:59:36 0° 335° (NNW) 2,842 ? -15.9°
Reaches altitude 10° 01:01:51 10° 332° (NNW) 1,934 ? -16.3°
Maximum altitude 01:06:08 63° 252° (WSW) 660 ? -17.1°
Drops below altitude 10° 01:10:21 10° 171° (S) 1,908 ? -17.9°
Enters shadow 01:10:55 - 170° (S) 2,135 ? -18.0°
